Back to catalog

FENGYUN 1C DEB

AlivePO
NORAD 30761·DEBRIS·🇨🇳 China

Launched May 10, 1999 from Taiyuan Satellite Launch Center

Loading…

Next Passes (next 24 hours)

TLE

FreshSource: Space-Track

Epoch: Sep 13, 2026, 18:42 UTC

1 30761U 99025ATX 26256.77921981  .00001150  00000-0  38956-3 0  9998
2 30761  98.9795 199.3026 0081792 225.2609 134.1899 14.36971335 16913

Track FENGYUN 1C DEB in real time with AllMySat

Download on the App Store